Regional Weather Roundup
Issued by NWS Sterling, VA

Home | Current Version | Previous Version | Text Only | Print | Product List | Glossary Off
Versions: 1 2 3 4 5 6 7 8 9 10 11 12 13 14 15 16 17 18 19 20 21 22 23 24 25 26 27 28 29 30 31 32 33 34 35 36 37 38 39 40 41 42 43 44 45 46 47 48 49 50

000
ASUS41 KLWX 231410
RWRLWX

REGIONAL WEATHER ROUNDUP
NATIONAL WEATHER SERVICE BALTIMORE MD/WASHINGTON DC
900 AM EST THU NOV 23 2017

Note: "FAIR" indicates few or no clouds below 12,000 feet
with no significant weather and/or obstructions to visibility.
 TC=TEMPERATURE CELSIUS

 * =Non NWS site. Station does not report precipitation (e.g. rain,
    snow, etc.), thunder, or fog.

DCZ001-MDZ009-015-VAZ040>042-051-053>054-231500-
WASHINGTON METRO

CITY           SKY/WX    TMP DP  RH WIND       PRES   REMARKS
WASHINGTON NAT CLOUDY    35  22  58 NW8       30.22R WCI  29
DULLES         MOSUNNY   33  24  69 NW7       30.20S
ANDREWS AFB    CLOUDY    33  25  73 CALM      30.19S
FT BELVOIR     CLOUDY    28  24  86 CALM      30.22R
QUANTICO       CLOUDY    34  23  64 N9        30.23F WCI  27
COLLEGE PARK*  SUNNY     32  23  69 NW5       30.20S
LEESBURG*      SUNNY     36  27  69 NW6       30.21F
MANASSAS*      SUNNY     30  27  88 CALM      30.22S
GAITHERSBURG*  SUNNY     35  30  82 NW5       30.19S

$$

MDZ006>007-011-014-231500-
BALTIMORE METRO

CITY           SKY/WX    TMP DP  RH WIND       PRES   REMARKS
BWI AIRPORT    MOSUNNY   34  25  69 W5        30.19S
MD SCIENCE CTR   N/A     37  22  54 MISG      30.21R
MARTIN STATE   MOSUNNY   34  28  80 W3        30.22R
FORT MEADE*    SUNNY     28  27  93 CALM      30.23R

$$

MDZ012-015-019>023-231500-
MARYLAND EASTERN SHORE

CITY           SKY/WX    TMP DP  RH WIND       PRES   REMARKS
OCEAN CITY     MOSUNNY   35  25  66 NW9       30.19R WCI  28
SALISBURY      MOSUNNY   35  24  64 N9        30.18F WCI  28
CAMBRIDGE*     SUNNY     37  25  60 N8        30.20S
EASTON*        MOSUNNY   37  25  60 N6        30.23R

$$

MDZ017>025-231500-
SOUTHERN MARYLAND

CITY           SKY/WX    TMP DP  RH WIND       PRES   REMARKS
PATUXENT RIVER MOSUNNY   39  24  55 NW14      30.20S
ST INIGOES     MOSUNNY   39  25  57 NW8       30.19F
LEONARDTOWN*   CLOUDY    36  27  69 NW6       30.21F

$$

MDZ003>005-231500-
NORTH CENTRAL MARYLAND

CITY           SKY/WX    TMP DP  RH WIND       PRES   REMARKS
FREDERICK*     MOSUNNY   36  21  55 W3        30.22S
HAGERSTOWN APT CLOUDY    34  23  64 W5        30.17S
WESTMINSTER*   SUNNY     30  23  74 W3        30.16S

$$

MDZ501>502-231500-
WESTERN MARYLAND

CITY           SKY/WX    TMP DP  RH WIND       PRES   REMARKS
OAKLAND*       SUNNY     23  19  86 W5        30.02S
CUMBERLAND*    SUNNY     32  25  74 CALM      30.22S

$$

VAZ025>031-231500-
SHENANDOAH VALLEY

CITY           SKY/WX    TMP DP  RH WIND       PRES   REMARKS
WINCHESTER*    SUNNY     32  21  64 NW5       30.18F
FRONT ROYAL*   SUNNY     32  27  80 MISG      30.18F
LURAY*         SUNNY     30  27  86 CALM      30.18S
NEW MARKET*    SUNNY     25  21  85 CALM      30.16F
STAUNTON*      SUNNY     24  21  88 CALM      30.19R
WAYNESBORO*    CLOUDY    28  24  85 CALM      30.15S

$$

WVZ021-048>050-054>055-231500-
EASTERN WEST VIRGINIA PANHANDLE

CITY           SKY/WX    TMP DP  RH WIND       PRES   REMARKS
MARTINSBURG    SUNNY     34  19  54 NW5       30.18S
PETERSBURG*    SUNNY     24  21  88 CALM      30.17F

$$

VAZ036>039-050-231500-
CENTRAL FOOTHILLS

CITY           SKY/WX    TMP DP  RH WIND       PRES   REMARKS
CHARLOTTESVILL CLOUDY    32  26  78 CALM      30.18S
CULPEPER*      CLOUDY    30  24  78 CALM      30.22S
ORANGE*        CLOUDY    27  23  86 CALM      30.20S
GORDONSVILLE*  CLOUDY    25  24  94 MISG      30.19F
WARRENTON*     NOT AVBL

$$

VAZ055>057-231500-
NORTH AND CENTRAL PIEDMONT

CITY           SKY/WX    TMP DP  RH WIND       PRES   REMARKS
FREDERICKSBRG* CLOUDY    32  28  85 CALM      30.21F
STAFFORD*      CLOUDY    26  26 100 CALM      30.26S

$$

NCZ024-NYZ072-PAZ021-071-VAZ022-071-231500-
OTHER REGIONAL OBSERVATIONS

CITY           SKY/WX    TMP DP  RH WIND       PRES   REMARKS
NEW YORK CITY  SUNNY     33  19  56 NW3       30.14R
PHILADELPHIA   MOSUNNY   34  18  52 N10       30.18S WCI  26
PITTSBURGH     PTSUNNY   27  23  85 CALM      30.13F
ROANOKE        SUNNY     33  25  72 CALM      30.18S
RICHMOND       PTSUNNY   38  25  59 NE10      30.20S
RALEIGH        PTSUNNY   39  27  62 NE8       30.18S

$$

ANZ530>537-231500-
MARINE OBSERVATIONS

STATION/POSITION TIME  TEMP    WIND        PRES
                       AIR SEA DIR/SP/G
                 (UTC) (F)     (DEG/KT/KT) (MB)
THOMAS PT LIGHT  1400   35 51  320/  9/ 10   N/A
BALT KEY BRIDGE  1336   35     270/  8/  9 1022.8R
COVE POINT       1336   37     330/ 11/ 15 1023.3R
LEWISETTA        1336   38 49   10/ 11/ 15 1022.4F
SOLOMONS ISLAND  1336   37 52  330/  9/ 13 1022.5R
PINEY POINT      1348           10/ 11/ 14   N/A

$$




USA.gov is the U.S. government's official web portal to all federal, state and local government web resources and services.